Location: Augsburg
(48.3836°N, 10.8929°E)
Time: 17:14:32
(UTC+02:00)

ISS - Pass Details

Date: 27 May 2021
Orbit: 417 x 422 km, 51.6° (Epoch: 13 June)

Event Time Altitude Azimuth Distance (km) Brightness Sun altitude
Rises 22:13:41 0° 291° (WNW) 2,368 1.3 -9.4°
Reaches altitude 10° 22:15:47 10° 292° (WNW) 1,503 0.2 -9.7°
Maximum altitude 22:19:09 89° 195° (SSW) 425 -3.8 -10.0°
Enters shadow 22:22:03 13° 113° (ESE) 1,310 -1.8 -10.3°
